Lid_Strength_Index
1 1 1 -0 -0 -0 -1 -1 -0 0 -0 -0 -0 -1 -0 -0 0 7 9 5 4 -1 -0 6 8 7 7 8 8 9 12 14 13 14 12 12 12 12 12 13 13 12 12 12 12
1 1 1 1 0 -0 -0 -0 -0 0 0 -0 0 -0 -1 0 7 9 3 -0 -1 -1 8 8 9 8 9 9 9 11 13 13 12 12 12 12 12 12 12 13 13 14 13 13 13
2 2 2 2 1 0 -0 -0 -0 0 0 0 0 -0 -0 2 8 9 0 -0 -0 1 7 8 8 9 10 10 10 12 13 12 11 11 11 12 12 12 13 13 12 13 14 14 14
2 2 2 1 1 1 0 -0 -0 -0 0 0 -0 0 1 6 12 8 -0 0 1 5 8 9 9 10 11 12 11 12 12 11 10 10 11 12 12 12 13 11 11 12 13 14 14
2 1 1 1 1 1 1 0 -0 -0 0 0 -0 0 5 10 9 6 2 4 8 8 9 9 10 11 11 12 12 12 12 11 11 11 11 12 12 12 13 12 12 13 14 14 14
2 1 1 1 1 1 1 0 -0 0 0 0 -0 1 8 11 7 7 8 8 9 9 10 9 10 10 11 11 12 12 11 11 11 11 12 12 12 12 12 14 14 15 14 14 14
2 2 1 1 1 1 1 1 0 0 1 0 -0 4 9 9 7 7 8 9 9 9 9 10 9 10 10 12 11 12 13 13 12 12 12 12 13 13 12 14 15 15 15 15 15
2 2 2 1 1 1 1 0 1 1 0 0 0 6 9 7 7 7 8 9 8 9 9 9 9 9 11 11 12 14 14 15 13 12 12 12 14 11 13 14 14 15 16 15 15
2 2 2 1 1 1 1 1 1 1 0 0 6 8 10 4 7 7 9 9 9 9 9 8 9 11 11 13 14 14 16 16 14 13 13 14 14 12 14 15 14 15 15 15 15
2 2 2 2 1 1 1 1 2 2 4 5 7 9 9 10 7 7 9 9 10 9 9 10 11 13 14 14 17 17 16 16 16 14 14 15 15 12 13 15 14 14 15 15 15
2 2 2 2 1 1 3 8 9 12 10 10 11 11 10 7 7 9 9 9 9 10 12 12 13 14 13 13 15 15 16 16 15 15 15 16 15 13 11 14 14 14 15 15 15
3 3 3 2 1 1 8 10 10 10 12 10 11 10 9 8 10 9 9 11 12 13 13 13 14 13 13 14 14 16 16 17 15 15 16 16 16 14 13 12 11 12 14 15 15
3 4 3 2 1 7 9 9 7 9 13 11 10 10 9 8 10 10 10 12 13 14 14 15 14 13 13 15 15 16 17 17 16 16 17 18 19 17 15 14 13 12 13 14 14
3 3 4 3 6 9 9 8 7 9 18 16 13 10 9 9 12 10 11 12 13 14 14 14 13 13 15 14 15 16 15 16 17 18 19 17 19 18 16 14 13 12 14 14 15
4 4 3 4 8 11 8 7 9 12 22 15 13 9 10 11 12 12 11 12 14 13 13 14 15 15 15 14 14 15 16 17 17 18 21 20 21 18 18 16 13 12 14 14 15
4 4 4 6 8 9 9 10 11 17 22 17 12 12 13 12 12 12 12 12 13 14 15 14 14 14 14 15 16 15 16 17 20 20 23 18 19 20 19 17 15 13 14 14 16
3 4 5 7 9 8 8 11 18 22 16 17 14 14 14 14 13 13 14 15 15 16 16 15 16 15 14 15 15 16 17 20 21 23 20 21 22 18 16 16 14 13 14 15 16
3 3 4 6 8 9 12 13 21 19 18 14 13 14 14 13 14 13 15 16 14 15 17 17 17 16 15 14 15 17 16 18 23 22 19 22 23 18 16 14 15 16 16 16 17
3 5 6 6 6 8 13 19 19 18 15 15 13 15 15 13 13 15 15 15 14 12 14 16 16 16 16 16 15 17 18 16 19 30 25 20 19 17 17 17 17 16 17 17 17
4 6 6 6 7 8 15 16 17 14 15 15 17 16 18 15 16 16 17 16 15 13 12 15 16 18 18 18 19 18 17 19 20 24 27 20 19 18 17 16 15 15 16 16 17
5 8 7 5 5 9 15 16 16 14 14 15 16 17 16 17 16 17 16 15 14 14 13 14 15 17 19 19 19 19 20 19 18 20 23 22 20 18 16 15 14 14 15 16 16
6 11 8 5 11 11 15 15 13 14 14 14 15 15 17 15 15 16 16 13 12 13 14 13 13 15 16 20 19 18 17 17 19 21 22 22 20 16 16 15 15 15 16 16 16
8 9 7 6 14 14 15 15 14 15 15 15 15 15 15 16 17 16 15 14 14 14 14 13 16 19 18 20 20 20 19 18 19 19 20 21 19 15 17 16 16 16 16 16 17
8 12 11 10 10 12 13 14 15 13 13 14 15 14 16 17 14 15 17 16 14 14 11 12 16 17 19 17 19 21 20 18 18 19 19 19 17 15 13 14 14 16 17 17 17
6 10 11 14 13 12 12 13 14 15 14 13 14 14 15 16 16 16 15 15 16 14 15 14 17 15 15 14 17 18 18 19 20 18 19 17 16 15 13 13 12 12 11 13 18
8 9 9 11 11 12 11 13 14 12 14 15 15 14 14 15 15 16 14 14 15 18 17 16 16 15 17 15 15 17 16 15 16 17 17 16 16 13 12 11 12 12 11 13 14
3 4 7 10 11 12 13 12 12 11 11 12 13 13 14 14 11 11 11 12 12 14 17 17 18 19 19 16 17 20 17 15 15 14 14 17 14 12 13 13 12 12 12 12 12